Temperature
21 20 20 19 19 20 21 22 23 23 22 22 22 22 21 20 20 20 20 20 20 20 20 19 19 19 19 19 19 19 19 19 19 19 19 19 19 19 19 19 19 18 18 18 18 18 18 18 18
21 20 20 20 20 20 21 22 23 23 23 23 23 22 21 20 20 20 20 20 20 20 20 19 19 19 19 19 19 19 19 19 19 19 19 19 19 19 19 19 18 18 18 18 18 18 18 18 18
21 20 20 19 20 21 22 23 23 23 23 23 22 22 21 21 21 21 21 20 20 20 20 19 19 19 19 19 19 19 19 19 19 19 19 19 19 19 19 19 18 18 18 18 18 18 18 18 18
21 21 21 20 22 22 23 23 23 23 23 23 22 21 21 21 21 21 21 20 20 20 19 19 19 19 19 19 19 19 19 19 19 19 19 19 19 19 19 19 18 18 18 18 18 18 18 18 18
21 21 20 21 22 23 23 23 23 23 23 22 22 21 20 20 21 21 21 20 20 20 19 19 19 19 19 19 19 19 19 19 19 19 19 19 19 19 19 19 18 18 18 18 18 18 18 18 18
22 20 20 21 22 23 23 23 23 22 22 22 21 20 20 20 21 21 20 20 20 20 19 19 19 19 19 19 19 19 19 19 19 19 19 19 19 19 19 18 18 18 18 18 18 18 18 18 18
21 20 21 22 22 23 24 24 23 22 22 22 22 20 20 20 20 20 20 20 20 19 19 19 19 19 19 19 19 19 19 19 19 19 19 18 18 19 18 18 18 18 18 18 18 18 18 18 18
22 20 22 22 23 23 24 24 23 23 22 22 22 20 20 20 20 20 20 20 20 19 19 19 19 19 19 19 19 18 18 18 19 18 18 18 18 18 18 18 18 18 18 18 18 18 18 18 18
22 20 21 22 23 23 24 24 23 23 23 22 22 22 21 21 20 20 20 20 19 19 19 19 19 19 19 19 19 18 18 18 18 18 18 18 18 18 18 18 18 18 18 18 18 18 18 18 18
22 21 23 23 23 23 24 24 23 23 22 21 21 21 21 21 20 20 20 20 19 19 19 19 19 19 19 19 19 18 18 18 18 18 18 18 18 18 18 18 18 18 18 18 18 18 18 18 18
22 22 23 24 24 24 24 24 23 22 21 21 21 21 21 21 20 20 20 20 20 19 19 19 19 19 19 19 19 19 18 18 18 18 18 18 18 18 18 18 18 18 18 18 18 18 18 18 18
23 23 24 24 25 25 24 24 23 23 23 23 23 22 21 21 20 20 20 20 20 20 19 19 19 19 19 19 19 19 18 18 18 18 18 18 18 18 18 18 18 18 18 18 18 18 18 18 18
23 24 25 25 25 25 24 23 23 23 23 23 22 22 21 21 21 20 20 20 20 20 20 19 19 19 19 19 19 19 19 18 18 18 18 18 18 18 18 18 18 18 18 18 18 18 18 18 18
24 24 24 25 25 25 23 23 23 22 22 22 22 21 21 21 20 20 20 20 20 20 20 19 19 19 19 19 19 19 19 18 18 18 18 18 18 18 18 18 18 18 18 18 18 18 18 18 18
24 23 24 24 24 24 24 23 22 22 22 22 21 21 21 20 20 20 20 20 20 20 20 20 19 19 19 19 19 19 18 18 18 18 18 18 18 18 18 18 18 18 18 18 18 18 18 18 18
24 23 23 24 24 24 23 22 22 22 22 21 21 21 20 20 21 20 20 20 20 20 20 20 19 19 19 19 19 18 18 18 18 18 18 18 18 18 18 18 18 18 18 18 18 18 18 18 18
22 22 23 24 24 24 23 23 22 22 22 21 21 21 21 20 21 21 20 20 20 20 20 20 20 19 19 19 19 19 19 18 18 18 18 18 18 18 18 18 18 18 18 18 18 18 18 17 17
23 23 23 23 24 23 23 22 22 22 21 21 21 21 21 20 21 21 20 20 20 20 20 20 20 20 19 19 19 19 19 18 18 18 18 18 18 18 18 18 18 18 18 18 18 18 18 17 17
23 23 23 23 24 23 22 22 22 21 21 21 21 21 21 21 21 21 21 20 20 20 20 20 20 20 19 19 19 19 19 19 18 18 18 18 18 18 18 18 18 18 18 18 18 18 18 17 17
23 23 23 24 24 23 22 22 22 21 21 21 21 21 21 21 21 21 21 20 20 20 20 20 20 19 19 19 19 19 18 18 18 18 18 18 18 18 18 18 18 18 18 18 18 18 17 17 17
24 23 23 23 23 23 23 22 22 22 21 21 21 21 21 21 21 21 21 20 20 20 20 20 20 19 19 19 19 19 19 18 18 18 18 18 18 18 18 18 18 18 18 18 18 17 17 17 17
23 24 24 24 22 21 22 21 22 21 21 21 21 21 21 21 21 21 21 21 21 20 20 20 19 19 19 19 19 19 19 18 18 18 18 18 18 18 18 18 18 18 18 17 17 17 17 17 17
24 24 23 23 22 21 21 21 21 20 21 20 21 21 21 21 21 21 21 21 21 20 20 20 19 19 19 19 19 19 18 18 18 18 18 18 18 18 18 18 18 18 17 17 17 17 17 17 17
24 23 22 20 20 21 21 21 21 20 21 21 21 21 22 21 21 21 21 21 20 20 20 20 19 19 19 19 19 19 18 18 18 18 18 18 17 17 17 17 17 17 17 17 17 17 17 17 17
23 21 21 21 20 21 21 21 21 21 21 21 21 22 22 22 21 21 21 21 20 20 20 20 19 19 19 19 19 18 18 18 18 18 17 17 17 17 17 17 17 17 17 17 17 17 17 17 17
23 22 21 22 21 20 21 21 21 22 22 22 22 22 22 22 22 22 21 21 21 20 20 20 19 19 19 19 19 18 18 18 18 18 17 17 17 17 17 17 17 17 17 17 17 16 16 16 16
23 21 21 20 20 20 20 21 21 22 21 21 21 21 22 22 22 22 22 21 21 21 20 20 20 19 19 19 19 18 18 18 18 18 17 17 17 17 17 17 17 17 16 16 16 16 16 16 16
23 20 19 19 20 21 21 21 21 22 21 21 20 21 22 22 22 22 22 21 21 21 20 20 20 19 19 19 19 18 18 18 18 17 17 17 17 17 17 16 16 16 16 16 16 16 16 16 16
23 21 19 17 19 20 21 21 22 21 21 20 20 21 22 22 22 22 22 21 21 21 20 20 20 19 19 19 18 18 18 18 18 18 17 17 17 16 16 16 16 16 16 16 16 16 15 15 15
23 22 19 21 20 18 19 20 22 20 20 20 21 21 22 22 22 22 21 21 21 21 20 20 20 19 19 19 18 18 18 18 18 18 17 17 17 16 16 16 16 16 16 15 15 15 15 15 15
Wind_Speed
9 8 3 1 2 4 3 2 0 2 3 3 4 6 6 4 2 2 1 2 4 3 4 5 4 5 5 6 7 7 8 8 8 8 7 7 7 7 7 8 8 9 10 10 9 10 9 9 8
7 5 2 1 4 3 3 2 2 2 3 4 5 6 6 4 2 3 1 2 4 4 4 4 4 5 6 6 7 7 7 7 7 7 7 7 6 7 8 8 8 8 9 9 9 9 8 8 7
5 3 1 3 3 2 1 0 3 4 3 2 4 5 4 3 2 2 2 4 4 3 3 3 4 5 6 6 6 6 7 7 7 7 7 7 7 8 8 7 7 8 7 7 8 7 7 7 7
2 1 2 4 2 1 2 2 4 5 3 5 4 5 3 3 1 3 5 6 5 2 2 3 4 5 6 6 5 6 6 6 6 6 7 7 7 7 7 6 6 6 6 6 7 7 6 6 6
1 2 4 4 3 2 2 3 3 3 3 4 4 4 4 5 5 7 7 5 4 2 1 2 3 4 5 5 5 5 6 6 6 6 7 6 6 6 6 5 5 4 5 5 5 5 5 5 5
2 3 4 2 3 3 2 3 4 4 4 4 4 4 3 3 4 5 5 4 4 2 1 1 2 2 3 4 5 5 5 5 6 6 6 6 5 5 5 4 3 3 3 3 3 3 3 3 4
3 3 2 1 2 2 2 3 3 4 4 2 3 4 2 2 3 5 5 5 4 3 2 1 1 1 1 3 4 4 4 4 5 5 5 4 4 4 4 3 2 2 2 2 2 2 2 2 3
3 3 2 1 1 1 1 3 3 4 3 3 3 5 3 2 4 6 6 5 4 3 2 2 2 1 1 1 2 3 3 3 3 3 3 3 3 3 3 2 1 1 1 1 1 1 1 2 2
3 4 1 1 2 0 1 3 2 3 5 3 3 3 4 8 8 7 5 4 2 2 2 2 2 1 1 1 2 2 2 2 2 2 2 2 1 1 1 1 1 1 1 1 0 1 2 1 1
3 2 2 2 3 3 2 3 3 4 4 4 5 6 8 8 8 7 5 3 2 1 0 1 1 1 1 1 2 1 1 1 2 2 2 2 2 1 1 2 2 2 2 3 2 2 2 2 1
2 3 2 1 2 4 3 3 3 6 2 4 6 9 9 8 7 6 4 3 2 1 1 0 0 0 1 1 1 1 1 1 1 2 2 2 2 2 2 2 3 3 3 3 3 3 2 1 1
2 1 1 0 2 4 4 4 4 3 3 5 9 11 9 8 7 6 5 3 2 1 1 0 1 1 0 0 1 1 0 0 0 1 1 1 1 2 2 2 2 2 2 2 2 1 2 1 1
1 1 1 2 4 5 5 5 3 2 4 8 10 9 9 8 5 4 4 3 2 2 1 1 1 1 0 1 0 1 0 1 1 1 1 0 1 0 1 1 1 2 2 1 1 1 2 2 2
1 2 2 3 4 3 5 4 4 2 7 9 9 7 6 6 5 3 3 2 2 2 1 0 1 1 1 1 0 0 0 0 1 0 1 0 1 0 0 1 1 1 2 1 1 1 1 1 1
2 4 5 3 3 2 5 4 1 3 8 9 8 7 5 4 4 4 4 3 3 2 1 1 1 1 1 1 0 0 1 1 1 1 2 1 1 1 1 0 1 1 1 1 1 1 1 1 1
4 5 3 2 2 2 4 1 2 5 8 7 6 6 5 3 4 3 3 3 2 2 1 1 1 2 1 1 1 1 1 1 1 1 2 2 1 1 0 0 1 1 1 1 1 1 1 1 2
5 2 1 3 1 2 2 3 3 5 7 6 6 5 5 4 3 3 3 3 3 2 2 1 2 2 1 1 1 2 2 1 1 1 1 2 2 1 1 0 1 1 1 1 1 1 1 1 1
2 1 1 3 2 2 1 3 3 6 6 6 6 5 4 4 4 3 3 3 2 1 2 2 2 2 2 2 2 2 2 2 1 1 2 2 2 2 1 0 1 1 1 1 1 1 1 0 0
3 2 2 3 1 2 2 3 4 5 5 6 6 6 5 5 3 2 3 3 2 1 1 1 1 1 2 1 1 1 1 1 2 1 2 3 2 2 1 1 1 1 1 0 0 0 1 1 0
3 1 1 2 1 2 1 3 3 4 7 8 8 8 7 5 3 3 3 3 3 2 2 1 1 0 1 1 1 1 0 1 1 1 2 3 2 2 1 1 1 1 1 2 1 1 0 1 1
2 4 4 2 2 3 2 4 3 3 3 4 5 6 6 8 7 5 4 4 3 3 3 2 2 1 1 1 2 2 2 2 2 2 2 2 2 2 1 1 1 1 1 1 1 1 0 0 0
4 4 4 2 2 2 1 2 6 3 3 6 7 6 7 7 7 6 5 5 4 4 3 2 2 1 1 2 2 2 2 0 1 1 2 2 3 2 2 1 1 1 1 1 1 1 1 0 1
4 1 3 2 3 2 2 1 7 2 5 7 9 9 9 8 8 7 7 6 5 4 3 3 2 1 1 2 3 3 2 0 1 1 2 3 2 2 2 1 1 1 1 1 1 1 1 0 1
4 6 6 6 4 1 3 3 6 4 7 6 7 9 9 8 7 7 6 5 4 3 3 3 3 1 1 2 2 3 2 1 1 2 2 2 2 2 3 2 1 1 1 2 1 1 1 1 0
5 6 4 4 4 5 3 2 8 7 5 6 7 7 8 7 7 6 6 6 6 5 5 4 3 2 1 2 2 2 2 2 1 1 1 1 1 1 3 2 2 2 1 1 1 1 1 1 0
4 7 6 4 4 5 2 4 7 5 3 2 3 4 5 6 7 7 7 7 7 7 6 5 4 3 2 2 2 1 1 1 1 1 0 1 1 1 2 2 2 2 2 2 2 1 1 1 1
6 4 5 6 2 1 5 6 7 2 2 1 2 3 4 5 7 7 6 7 7 6 6 6 5 4 3 3 2 1 1 1 1 1 0 1 1 1 2 2 2 2 2 2 1 1 2 1 1
5 8 6 5 4 2 5 5 4 4 4 2 3 4 4 4 5 6 6 6 6 6 5 5 5 5 4 3 3 2 2 2 1 1 0 1 1 1 1 2 2 2 2 2 1 1 2 1 1
3 4 5 5 5 5 3 7 5 7 6 5 5 5 5 5 4 5 5 5 5 5 5 5 4 4 4 4 3 2 1 1 1 1 1 1 1 1 1 1 1 2 2 2 1 1 1 1 2
4 6 7 5 3 4 4 7 6 4 4 4 4 4 3 3 3 2 3 4 4 5 5 5 5 4 4 3 3 2 2 1 1 1 2 1 1 1 1 1 1 2 2 2 1 2 2 2 2
Wind_Direction
157 152 154 181 51 43 21 343 71 54 44 41 72 86 91 81 99 128 283 140 137 133 149 157 150 137 130 127 122 117 118 118 121 121 126 129 129 131 137 143 143 144 146 148 149 152 154 158 162
154 164 188 58 72 57 341 331 78 84 129 123 76 72 72 63 73 109 133 159 132 132 143 154 145 139 140 131 122 118 115 115 120 120 119 120 120 125 127 128 133 141 145 148 151 154 158 160 163
174 196 103 62 76 145 186 58 116 103 102 76 66 57 71 77 108 149 170 137 117 120 134 156 146 144 140 129 122 122 117 114 115 118 117 115 112 114 119 124 129 139 148 154 156 158 163 164 167
179 84 52 60 45 269 172 166 132 119 68 46 77 62 47 29 96 131 123 124 117 107 127 155 146 143 140 133 127 122 118 115 113 113 113 112 109 109 111 117 123 134 145 152 156 160 167 172 176
86 67 51 35 354 5 87 128 118 91 71 50 70 75 26 5 76 105 116 122 121 102 98 154 153 144 146 146 139 131 124 122 117 113 113 115 114 113 115 116 116 126 138 144 149 158 167 178 186
52 58 65 30 350 14 73 109 92 77 80 74 77 82 29 24 83 108 109 105 103 102 82 126 153 147 145 154 148 134 127 120 115 112 112 113 114 114 116 115 112 118 135 146 155 160 167 176 185
88 72 82 46 1 25 92 96 109 111 99 97 104 89 48 39 85 105 97 86 81 80 76 49 71 91 99 130 142 136 127 119 110 109 112 118 121 118 109 105 108 117 133 158 170 178 184 194 192
124 90 46 11 57 14 88 95 97 104 103 105 101 124 171 174 121 100 86 78 71 62 51 47 38 36 50 107 128 131 123 114 103 99 110 115 112 113 112 108 101 99 87 145 150 224 234 229 212
114 69 45 230 171 202 101 103 77 71 95 73 65 120 144 132 121 104 89 74 73 72 40 42 34 30 44 90 94 89 99 80 75 65 73 74 62 61 86 87 77 52 358 355 295 285 283 277 256
97 106 235 217 176 165 120 105 120 94 85 70 66 81 112 125 133 129 132 138 144 173 176 74 23 16 44 86 79 59 51 45 44 38 33 38 34 20 14 7 11 15 2 341 337 343 337 330 308
138 179 242 296 156 136 119 101 98 121 128 176 156 143 136 135 137 140 149 158 182 191 178 165 143 27 68 70 90 71 48 45 43 35 26 33 34 20 9 355 347 351 349 343 358 11 3 352 325
123 265 215 213 105 109 116 104 92 123 198 160 151 145 143 147 152 157 162 172 160 143 194 216 137 83 7 119 116 104 89 59 15 324 9 64 51 32 14 12 353 349 340 358 6 6 348 341 326
92 352 33 89 90 101 94 88 108 68 102 120 130 136 146 154 157 155 155 161 149 162 200 211 137 110 43 63 345 125 168 205 225 287 320 120 96 15 9 353 349 332 326 346 335 341 345 348 337
23 30 34 67 83 82 102 85 88 123 125 127 137 146 152 157 158 156 159 165 175 181 196 175 111 111 80 77 77 33 320 64 102 351 316 286 206 207 318 329 343 329 315 294 270 299 330 341 342
47 46 36 51 69 78 95 54 65 161 139 140 150 152 151 155 153 173 185 183 185 183 161 119 129 86 89 94 116 79 347 35 48 331 317 314 268 238 224 271 312 310 297 304 326 343 4 359 0
43 51 29 319 99 99 104 223 231 153 147 154 159 159 161 171 176 183 182 179 175 156 126 90 98 87 87 86 90 47 30 41 15 344 334 330 316 272 187 3 329 314 333 16 9 15 23 8 1
36 60 318 300 199 131 135 234 212 163 161 164 168 172 172 180 200 192 183 180 172 164 146 108 73 84 87 76 67 53 44 37 9 2 341 336 332 315 184 287 305 339 47 31 350 16 55 15 355
240 244 260 263 253 140 176 245 203 178 175 179 178 180 182 196 217 201 184 169 154 143 126 118 89 79 85 72 55 44 37 23 21 12 347 355 357 8 54 355 342 20 48 26 9 351 7 346 321
171 174 264 272 228 151 210 238 222 194 188 195 197 198 202 212 216 189 173 157 138 120 115 110 84 75 90 77 76 60 10 352 3 354 360 5 11 24 69 39 23 26 34 353 15 66 18 8 30
157 173 247 319 79 134 213 269 244 204 208 204 201 205 208 207 205 205 187 171 171 183 186 167 185 173 121 126 142 147 171 327 346 349 6 11 18 22 44 49 38 26 25 21 18 55 74 1 50
230 197 206 203 34 47 62 332 286 244 216 205 208 209 210 209 210 211 200 195 185 189 189 190 202 200 185 132 91 72 52 26 20 11 7 1 8 16 22 29 41 32 50 3 345 40 118 252 323
257 231 188 168 96 319 71 290 285 254 240 226 224 216 217 216 210 204 200 199 195 202 181 173 193 193 180 130 125 123 114 91 310 317 341 349 6 7 7 15 41 43 32 354 319 360 294 233 300
210 130 121 108 113 23 7 174 285 279 249 242 230 221 219 215 205 202 200 196 189 184 176 177 176 179 173 145 151 138 122 128 344 356 1 359 1 2 2 14 34 31 8 339 340 0 360 300 260
127 71 60 49 66 336 264 184 277 242 230 240 231 220 214 209 202 198 188 174 173 167 168 171 162 194 186 146 141 146 154 144 51 4 1 356 360 4 5 16 19 11 2 348 341 5 24 6 339
93 89 39 3 2 263 268 207 256 262 237 222 229 215 207 198 191 191 182 175 175 179 182 179 169 195 197 181 164 170 179 170 187 273 336 352 3 0 353 11 16 16 1 359 3 22 3 354 1
159 138 157 197 226 275 315 244 263 281 269 218 204 197 190 186 190 194 191 184 180 186 183 180 182 197 195 193 201 185 178 185 209 216 206 311 311 313 333 1 11 12 12 10 8 3 334 354 343
140 168 161 135 149 285 287 289 305 338 10 89 142 165 185 192 193 196 193 185 181 183 184 187 187 193 198 196 189 181 193 192 203 197 149 302 306 315 348 356 357 355 360 360 9 1 340 346 335
134 142 103 119 150 255 293 281 255 264 261 242 206 203 206 195 199 199 193 188 186 184 183 178 179 191 195 192 189 190 200 203 215 179 266 306 309 329 349 354 348 344 342 344 355 345 335 358 331
113 100 108 116 148 160 252 273 241 223 220 219 226 216 207 198 199 202 195 185 179 171 170 176 179 182 187 186 188 189 199 200 215 227 258 268 289 313 309 308 327 334 343 346 339 318 326 325 319
162 161 149 151 202 171 187 265 293 228 212 204 215 213 203 193 191 184 173 164 170 174 174 180 185 187 192 184 182 191 196 193 214 250 266 265 274 285 280 293 316 316 322 322 312 307 305 279 281
Height
1499 1499 1500 1501 1503 1510 1512 1505 1499 1499 1499 1499 1498 1499 1501 1503 1507 1512 1507 1505 1505 1505 1505 1505 1505 1505 1505 1506 1506 1506 1506 1506 1506 1506 1506 1506 1505 1504 1503 1504 1505 1506 1509 1512 1514 1516 1518 1520 1521
1499 1500 1502 1502 1509 1521 1516 1503 1501 1499 1500 1500 1500 1501 1502 1504 1505 1506 1506 1506 1506 1506 1506 1506 1506 1506 1507 1507 1508 1508 1508 1508 1508 1507 1507 1507 1505 1505 1505 1506 1508 1509 1511 1514 1516 1517 1519 1520 1521
1500 1501 1503 1504 1511 1518 1512 1503 1501 1500 1501 1501 1502 1503 1504 1506 1506 1506 1507 1507 1508 1508 1508 1508 1508 1508 1508 1509 1509 1509 1509 1509 1509 1509 1509 1508 1507 1507 1508 1509 1510 1512 1513 1515 1516 1518 1519 1520 1521
1502 1503 1504 1508 1511 1507 1504 1502 1501 1501 1502 1502 1503 1505 1507 1508 1508 1508 1508 1509 1509 1509 1509 1509 1510 1510 1510 1510 1510 1510 1511 1510 1510 1510 1510 1510 1510 1510 1511 1512 1513 1514 1515 1516 1517 1518 1519 1521 1521
1502 1504 1508 1514 1510 1504 1501 1501 1502 1502 1503 1505 1505 1507 1509 1510 1510 1510 1510 1510 1511 1511 1511 1511 1511 1512 1512 1512 1512 1512 1512 1512 1512 1512 1512 1512 1512 1512 1513 1514 1514 1515 1516 1517 1518 1519 1520 1521 1521
1504 1504 1516 1519 1511 1504 1503 1503 1503 1504 1506 1506 1507 1509 1511 1511 1511 1512 1512 1512 1513 1513 1513 1513 1513 1513 1513 1513 1513 1513 1513 1513 1514 1514 1514 1514 1514 1514 1515 1515 1516 1516 1517 1518 1518 1519 1520 1520 1521
1506 1509 1515 1515 1513 1507 1505 1504 1505 1506 1507 1508 1509 1510 1512 1512 1513 1513 1514 1514 1514 1515 1514 1514 1514 1514 1515 1514 1514 1515 1515 1515 1515 1515 1516 1516 1516 1516 1516 1516 1517 1517 1518 1518 1519 1519 1520 1520 1521
1506 1510 1514 1515 1513 1510 1505 1505 1506 1507 1508 1510 1510 1511 1512 1514 1514 1515 1515 1516 1516 1516 1516 1516 1516 1516 1516 1516 1516 1516 1516 1516 1517 1517 1517 1517 1517 1518 1518 1518 1518 1518 1518 1518 1519 1519 1519 1520 1520
1506 1514 1519 1514 1512 1509 1505 1506 1508 1509 1509 1510 1511 1512 1513 1514 1515 1516 1517 1517 1517 1517 1517 1517 1517 1517 1517 1517 1518 1518 1518 1518 1518 1518 1518 1518 1518 1519 1519 1519 1519 1519 1519 1519 1519 1519 1519 1519 1519
1507 1516 1512 1507 1506 1506 1506 1507 1508 1510 1511 1512 1512 1512 1513 1515 1516 1516 1517 1518 1518 1518 1519 1518 1518 1518 1518 1518 1518 1519 1519 1519 1519 1519 1519 1519 1519 1520 1520 1520 1520 1520 1520 1520 1519 1519 1519 1518 1518
1506 1510 1506 1504 1504 1505 1506 1508 1509 1510 1512 1512 1512 1513 1514 1515 1517 1518 1518 1519 1519 1520 1520 1520 1519 1519 1519 1519 1519 1519 1520 1520 1520 1520 1520 1520 1520 1520 1520 1521 1521 1520 1520 1520 1520 1519 1518 1518 1518
1507 1506 1505 1505 1505 1506 1507 1508 1510 1511 1511 1511 1512 1514 1515 1516 1518 1519 1519 1520 1521 1521 1520 1520 1520 1520 1520 1519 1520 1520 1520 1521 1521 1521 1521 1521 1521 1521 1521 1521 1521 1521 1521 1520 1520 1519 1518 1518 1517
1507 1506 1505 1505 1506 1507 1508 1510 1511 1512 1512 1513 1514 1516 1517 1518 1519 1520 1521 1522 1522 1521 1521 1521 1521 1521 1520 1520 1521 1521 1521 1521 1521 1522 1522 1522 1522 1521 1521 1521 1521 1521 1521 1520 1519 1519 1518 1517 1517
1507 1507 1506 1507 1507 1508 1510 1511 1512 1513 1513 1514 1516 1517 1519 1520 1521 1522 1522 1522 1522 1522 1522 1522 1522 1522 1522 1521 1521 1521 1522 1522 1522 1522 1522 1522 1522 1522 1522 1521 1521 1521 1521 1520 1519 1519 1518 1517 1517
1508 1509 1509 1509 1509 1510 1512 1515 1514 1514 1514 1515 1517 1519 1520 1521 1522 1522 1523 1523 1523 1523 1523 1523 1523 1523 1522 1522 1522 1522 1522 1523 1523 1523 1523 1523 1523 1522 1522 1522 1521 1521 1521 1520 1519 1519 1518 1517 1517
1510 1515 1520 1513 1511 1512 1517 1523 1515 1515 1515 1516 1518 1519 1520 1522 1522 1523 1523 1523 1524 1523 1524 1524 1524 1523 1523 1523 1523 1523 1523 1523 1523 1523 1524 1523 1523 1523 1523 1522 1522 1521 1521 1520 1519 1519 1518 1517 1517
1520 1527 1525 1517 1511 1512 1516 1520 1515 1515 1516 1517 1519 1520 1520 1521 1522 1523 1523 1524 1524 1524 1524 1524 1524 1524 1524 1524 1524 1524 1524 1524 1524 1524 1524 1523 1523 1523 1523 1522 1522 1521 1521 1520 1519 1519 1518 1517 1517
1527 1527 1525 1522 1514 1514 1517 1518 1515 1516 1517 1518 1519 1520 1520 1521 1522 1523 1524 1524 1525 1525 1525 1525 1525 1525 1525 1525 1525 1525 1525 1524 1524 1524 1524 1523 1523 1523 1522 1522 1522 1521 1520 1520 1519 1519 1518 1517 1517
1517 1522 1524 1518 1512 1515 1518 1518 1516 1516 1517 1518 1518 1519 1520 1520 1522 1523 1523 1524 1525 1525 1525 1525 1525 1525 1525 1525 1525 1525 1525 1525 1524 1524 1524 1524 1523 1523 1522 1522 1521 1521 1520 1520 1519 1519 1518 1517 1517
1516 1521 1522 1517 1512 1515 1519 1518 1515 1515 1515 1515 1516 1517 1518 1520 1521 1522 1523 1523 1524 1525 1525 1525 1525 1526 1525 1525 1526 1525 1525 1525 1525 1524 1524 1524 1523 1523 1522 1522 1521 1520 1520 1519 1519 1518 1518 1517 1517
1516 1520 1520 1519 1516 1516 1519 1523 1518 1514 1514 1515 1516 1516 1517 1518 1519 1521 1522 1523 1523 1524 1525 1525 1525 1526 1526 1526 1525 1525 1525 1525 1525 1524 1524 1523 1523 1523 1522 1521 1521 1520 1519 1519 1518 1518 1517 1517 1517
1519 1510 1512 1516 1525 1531 1526 1540 1522 1516 1515 1514 1513 1514 1514 1516 1517 1519 1520 1521 1522 1523 1524 1525 1525 1526 1526 1526 1525 1525 1525 1524 1524 1524 1524 1523 1523 1522 1521 1521 1520 1520 1519 1518 1518 1517 1517 1516 1516
1511 1507 1512 1517 1525 1533 1530 1537 1529 1517 1516 1512 1510 1510 1511 1513 1515 1516 1518 1519 1521 1522 1523 1524 1525 1525 1525 1525 1525 1525 1525 1524 1524 1524 1523 1523 1522 1521 1521 1520 1519 1519 1518 1518 1517 1517 1516 1516 1515
1505 1512 1518 1525 1533 1544 1534 1538 1533 1520 1512 1507 1505 1506 1507 1510 1512 1514 1516 1518 1519 1521 1522 1523 1524 1524 1524 1524 1525 1525 1524 1524 1524 1523 1522 1522 1521 1521 1520 1519 1519 1518 1518 1517 1516 1516 1515 1514 1514
1508 1526 1544 1547 1553 1548 1532 1534 1529 1508 1503 1503 1502 1503 1505 1508 1510 1512 1513 1515 1517 1519 1520 1521 1522 1523 1524 1524 1524 1524 1524 1524 1523 1522 1522 1521 1520 1520 1519 1519 1518 1517 1517 1516 1515 1514 1514 1513 1512
1511 1520 1543 1552 1555 1546 1533 1534 1518 1503 1500 1500 1501 1502 1504 1506 1508 1510 1511 1513 1515 1517 1519 1520 1521 1522 1523 1523 1524 1524 1524 1523 1523 1522 1522 1521 1520 1519 1519 1518 1517 1517 1516 1515 1514 1513 1512 1512 1511
1512 1519 1520 1537 1542 1547 1539 1527 1512 1501 1500 1500 1501 1501 1503 1505 1507 1508 1510 1512 1514 1516 1518 1519 1520 1521 1522 1522 1522 1523 1523 1522 1522 1521 1521 1520 1519 1519 1518 1518 1516 1516 1515 1514 1513 1512 1511 1510 1509
1503 1512 1526 1537 1549 1551 1540 1531 1524 1508 1504 1502 1501 1501 1502 1504 1505 1507 1509 1511 1513 1515 1517 1518 1519 1520 1521 1521 1521 1521 1521 1522 1521 1521 1520 1519 1518 1518 1517 1516 1515 1514 1513 1513 1512 1511 1510 1509 1508
1509 1515 1524 1535 1537 1549 1551 1536 1506 1503 1501 1501 1501 1501 1501 1502 1504 1506 1507 1510 1512 1514 1515 1516 1517 1518 1519 1519 1520 1520 1520 1520 1520 1519 1518 1518 1517 1516 1516 1515 1514 1513 1512 1511 1510 1509 1508 1507 1506
1501 1508 1518 1529 1536 1541 1544 1533 1499 1498 1498 1498 1499 1500 1502 1503 1504 1505 1507 1509 1510 1512 1513 1515 1516 1517 1517 1518 1519 1519 1519 1519 1518 1518 1517 1517 1516 1515 1514 1514 1513 1511 1510 1509 1508 1507 1506 1505 1504